Regional Weather Roundup
Issued by NWS Wakefield, VA

Home | Current Version | Previous Version | Text Only | Print | Product List | Glossary Off
Versions: 1 2 3 4 5 6 7 8 9 10 11 12 13 14 15 16 17 18 19 20 21 22 23 24 25 26 27 28

000
ASUS41 KAKQ 301215
RWRAKQ

REGIONAL WEATHER ROUNDUP
NATIONAL WEATHER SERVICE WAKEFIELD VA
800 AM EDT MON MAY 30 2016

Note: "fair" indicates few or no clouds below 12,000 feet with no
significant weather and/or obstructions to visibility. * = Denotes
station may not report precipitation (e.g., rain,snow,etc.),
thunder or fog.

VAZ042-051-052>054-056-301300-
NORTHERN VIRGINIA

CITY           SKY/WX    TMP DP  RH WIND       PRES   REMARKS
WASH NATIONAL  CLOUDY    71  66  84 CALM      30.04R
DULLES         PTSUNNY   68  63  84 NW5       30.05R
FORT BELVOIR   CLOUDY    69  67  93 N1        30.03R
QUANTICO       CLOUDY    70  67  90 CALM      30.04R
FREDERICKSBRG* CLOUDY    69  69 100 CALM      30.02S
STAFFORD*      CLOUDY    67  65  93 CALM      30.08R
WARRENTON      CLOUDY    69  64  85 CALM      30.04R
CULPEPER*      CLOUDY    67  67 100 CALM      30.05S
MANASSAS*      PTSUNNY   70  66  88 CALM      30.04R
LEESBURG*      CLOUDY    68  68 100 N3        30.06R
WINCHESTER     CLOUDY    64  61  88 S3        30.05S
FRONT ROYAL*   CLOUDY    63  61  94 SW5       30.05R
LURAY*         CLOUDY    63  63 100 S3        30.07R
$$

VAZ048-049-060>072-079>083-301300-
CENTRAL AND SOUTH CENTRAL VIRGINIA

CITY           SKY/WX    TMP DP  RH WIND       PRES   REMARKS
RICHMOND       CLOUDY    68  67  96 NW3       30.02S FOG
CHESTERFIELD*  CLOUDY    68  57  68 N3        30.04S
PETERSBURG*    FOG       69  69 100 CALM      30.03S VSB 1/2
HANOVER        FOG       67  65  93 CALM      30.04S VSB 3/4
TAPPAHANNOCK*  CLOUDY    71  71 100 CALM      30.03S FOG
QUINTON*       CLOUDY    69  69 100 W6        30.02R FOG
CHARLOTTSVILLE CLOUDY    67  61  81 CALM      30.05R
GORDONSVILLE*  PTSUNNY   67  65  95 CALM      30.04R
ORANGE*        PTSUNNY   68  68 100 CALM      30.06R
LOUISA*        CLOUDY    72  66  83 NW3       30.03R
BUMPASS*       PTSUNNY   67  65  96 CALM      30.03S
FARMVILLE*     CLOUDY    69  64  85 CALM      30.03S
CREWE*         CLOUDY    67  67 100 CALM      30.03S
FORT PICKETT*  NOT AVBL
CHASE CITY*    CLOUDY    65  64  94 CALM      30.04R VSB 1
CLARKSVILLE*   CLOUDY    64  64 100 CALM      30.03R VSB 3/4
SOUTH HILL*    CLOUDY    68  68 100 CALM      30.08R
LAWRENCEVILLE* CLOUDY    69  69 100 NW5       30.03R VSB 1/2
EMPORIA*       LGT RAIN  72  72 100 CALM      30.04R
$$

VAZ088>098-301300-
SOUTHEAST VIRGINIA

CITY           SKY/WX    TMP DP  RH WIND       PRES   REMARKS
NORFOLK        CLOUDY    73  69  87 S7        30.02R
VIRGINIA BEACH LGT RAIN  76  69  79 S5        30.01S
NORFOLK NAVAL  CLOUDY    74  70  87 S6        30.03S
WEST POINT*    CLOUDY    73  73  97 CALM      30.03S
SALUDA*        CLOUDY    73  73 100 CALM      30.02R
NEWPORT NEWS   CLOUDY    74  72  93 S6        30.02R
LANGLEY AFB    LGT RAIN  73  72  94 S6        30.02R
FORT EUSTIS    PTSUNNY   73 N/A N/A S6        30.00S
WILLIAMSBURG*  FAIR      75  73  94 CALM      30.02S
HR EXEC AP*    PTSUNNY   73  70  88 SE5       30.04R
FRANKLIN*      RAIN      73  71  94 SE3       30.03R
US460-WAKEFLD  CLOUDY    73  72  96 S3        30.02R
$$

VAZ020-022-025-037-045-301300-
WEST CENTRAL AND SOUTHWEST VIRGINIA

CITY           SKY/WX    TMP DP  RH WIND       PRES   REMARKS
STAUNTON*      CLOUDY    61  59  94 CALM      30.10R
WAYNESBORO*    CLOUDY    60  59  96 CALM      30.08R
HOT SPRINGS VA FAIR      62  59  91 NW6       30.14R
LYNCHBURG      CLOUDY    65  61  87 CALM      30.07S
DANVILLE       CLOUDY    67  63  87 N6        30.04S
SOUTH BOSTON*  CLOUDY    66  64  95 CALM      30.04R
MARTINSVILLE   RAIN      63  61  96 N3        30.08S
ROANOKE        PTSUNNY   64  60  87 N3        30.09S
BLACKSBURG     CLOUDY    59  59 100 CALM      30.14R FOG
DUBLIN*        FOG       59  59 100 NW3       30.12S VSB 1/4
MARION*        FOG       57  56  96 CALM      30.15R VSB<1/4
HILLSVILLE*    FOG       57  57 100 CALM      30.10S VSB<1/4
RICHLANDS*     FAIR      60  45  57 CALM      30.12S
WISE*          FAIR      63  63 100 CALM      30.12S
ABINGDON*      FAIR      63  60  91 E3        30.11R
$$

MDZ021>025-VAZ099-100-301300-
SOUTHERN MARYLAND AND THE DELMARVA PENINSULA

CITY           SKY/WX    TMP DP  RH WIND       PRES   REMARKS
PATUXENT RIVER CLOUDY    71  69  93 CALM      30.01S FOG
BAY BRIDGE APT CLOUDY    70  68  94 NW5       30.03R
LEONARDTOWN    CLOUDY    70  68  94 CALM      30.04R VSB 1/2
DOVER          CLOUDY    73  73 100 W6        30.01R
GEORGETOWN     LGT RAIN  73  71  93 S6        30.03R
EASTON         CLOUDY    73  73 100 CALM      30.05S
CAMBRIDGE      CLOUDY    72  70  94 CALM      30.02R
SALISBURY      CLOUDY    72  71  97 S3        30.02S
OCEAN CITY     LGT RAIN  70  70 100 SW8       30.03R
WALLOPS ISLAND LGT RAIN  71  69  93 S10       30.03S
ACCOMACK*      CLOUDY    72  70  94 S6        30.03R
$$

NCZ012>017-030>032-301300-
NORTH CENTRAL AND EASTERN NORTH CAROLINA

CITY           SKY/WX    TMP DP  RH WIND       PRES   REMARKS
ROANOKE RAPIDS CLOUDY    70  70 100 CALM      30.02R FOG
RALEIGH        FOG       68  66  93 N5        30.01S VSB 1/4
ELIZABETH CITY LGT RAIN  72  71  97 SE3       30.02S
AHOSKIE*       LGT RAIN  72  71  98 CALM      30.02R
EDENTON*       CLOUDY   N/A N/A N/A SE3       30.03R
CURRITUCK*     RAIN      72  72 100 SW3       30.03S
KILL DEVIL HLS CLOUDY    72  71  96 E3        30.02R
MANTEO         NOT AVBL
CAPE HATTERAS  LGT RAIN  72  71  97 E5        30.02S
TARBORO*       LGT RAIN  73  72  98 CALM      30.02R
GOLDSBORO      CLOUDY    74  74 100 E7        29.98S
WASHINGTON     CLOUDY    73  72  97 E5        30.01S
GREENVILLE     PTSUNNY   73  72  94 SE5       30.02S
NEW BERN       CLOUDY    73  70  90 SE5       30.01S
WILMINGTON     MOSUNNY   74  72  93 E3        29.97R
$$

VAZ048-301300-
ELSEWHERE

CITY           SKY/WX    TMP DP  RH WIND       PRES   REMARKS
HARRISBURG PA  PTSUNNY   68  63  84 CALM      30.03R
BALTIMORE      CLOUDY    69  64  84 VRB3      30.03R
ANNAPOLIS      CLOUDY    70  65  84 NW6       30.02R
ANDREWS AFB    CLOUDY    68  65  89 N3        30.03R
PHILADELPHIA   CLOUDY    71  68  90 NW6       30.02R
HENDERSON NC   FOG       64  63  98 N3        30.03R VSB 1/4
GREENSBORO     CLOUDY    66  62  87 NE10      30.03S
ROCKY MOUNT    CLOUDY    73  72  96 E3        30.01R
$$

VAZ100-301300-
MARINE

STATION/POSITION TIME  TEMP    WIND        PRES    WAVE   SWELL
                       AIR SEA DIR/SP/G            HT/PER HT/PER
                 (UTC) (F)     (DEG/KT/KT) (MB)    (FT/S) (FT/S)
BRANDYWINE LGT   1100   66     200/  9/  9 1016.3R
CAPE MAY NJ      1100   67 68  150/  8/ 11 1016.2R
LEWES DE         1100   73 62  200/  3/  6 1016.1R
15NM E FENWICK I 1150   66 64              1017.0R   4/ 7
OCEAN-CITY-INLET 1100   67 59  200/  8/ 10 1017.0R
WACHAPREAGUE VA  1100   72 75  210/ 11/ 15 1016.1R
THOMAS POINT MD  1200   69 69  350/  4/  5 1018.0R
GOOSES REEF MD   1200   69 69  330/  4/  4 1017.5R   0
COVE POINT MD    1100   67     340/  5/  5 1016.9R
SOLOMONS ISLAND  1100   70 68  330/  4/  5   N/A
BISHOPS HEAD MD  1100   72 75  200/  9/ 10 1016.4R
PINEY POINT MD   1100          330/  4/  5   N/A
POTOMAC MD       1200   71 70  180/  4/  4 1015.5R   1
CAMBRIDGE MD     1100   71 69  280/  5/  6 1015.4R
LEWISETTA VA     1100   73 71  250/  3/  3 1015.9R
RAPPAHANNOCK LGT 1100          170/ 10/ 10 1016.8R
STINGRAY PT      1200   71 69  170/  4/  4 1016.9R   0
YORK RVR RNG VA  1100   72     180/  6/  7 1015.7R
YORKTOWN VA      1100   73 71  150/  2/  3 1015.9R
JAMESTOWN VA     1200   73 75  240/  2/  2   N/A     0
DOMINION TERM VA 1100   73     170/  4/  5 1016.3R
KIPTOPEKE VA     1100      69  150/  8/  9   N/A
CHES BAY BRIDGE  1100   71 63  140/  6/  6 1016.3R
CAPE HENRY VA    1100   71     170/  6/  8   N/A
CHESAPEAKE LGHT  1100   69     200/ 14/ 15 1017.2R
WILLOUBY STN VA  1100   74     170/  8/  9 1017.2R
CAPE HENRY BUOY  1112      69                N/A     4/ 7
1ST LANDING BUOY 1200   70 67  170/  6/  8 1016.6R   1/ 5
CAPE CHARLES BUO 1126      68                N/A     3/ 7   2/ 7
OFFSHORE WE BUOY 1121      70                N/A     4/ 7   3/ 7
64NM E OF VA BCH 1150   67 62  170/  8/ 10 1017.0S   5/ 6   5/ 6
DUCK PIER NC     1100   68 58  120/  2/  2 1015.9S
44100 DUCK FRF   1124      67                N/A     4/ 6
44056 DUCK FRF   1111      62                N/A     3/ 7
OREGON INLET NC  1100   72 78  140/  3/  6 1016.4S
HATTERAS NC      1100   73 77  120/  7/ 12 1016.1R
DIAMOND SHLS NC  1150   77 80  150/ 21/ 25 1015.7F   5/ 9   2/ 9
CAPE LOOKOUT NC1F1C2F2C3F3C4F4C5F5C6F6C7F7C8M1C9!



USA.gov is the U.S. government's official web portal to all federal, state and local government web resources and services.